Voltar ao catálogo

CZ-6A DEB

AtivoPO
NORAD 61288·DEBRIS·🇨🇳 China

Lançado Aug 6, 2024 de Taiyuan Satellite Launch Center

Loading…

Próximas Passagens (próximas 24 horas)

TLE

AtualizadoSource: Space-Track

Época: Sep 14, 2026, 10:50 UTC

1 61288U 24140SZ  26257.45148734  .00002648  00000-0  87057-3 0  9994
2 61288  89.0161 264.4380 0011423  94.7886 265.4619 14.38000659106468

Acompanhe CZ-6A DEB em tempo real com AllMySat

Download on the App Store